Terug naar catalogus

DELTA 1 DEB

ActiefLEO
NORAD 10630·DEBRIS·🇺🇸 United States

Gelanceerd Jul 14, 1977 vanaf Cape Canaveral Space Force Station

Loading…

Volgende Passages (komende 24 uur)

TLE

VersSource: Space-Track

Epoch: Sep 14, 2026, 15:39 UTC

1 10630U 77065EZ  26257.65241786  .00000362  00000-0  33971-3 0  9993
2 10630  29.2354 120.1322 0779051 283.6622  67.8422 12.81166482518941

Volg DELTA 1 DEB in realtime met AllMySat

Download on the App Store